Location: Dal�� Lhota
(48.7500°N, 14.0167°E)
Time: 03:55:43
(UTC+00:00)

Transit 2A - Pass Details

Date: 04 August 2021
Orbit: 594 x 964 km, 66.7° (Epoch: 21 September)

Event Time Altitude Azimuth Distance (km) Brightness Sun altitude
Rises 10:29:12 0° 325° (NW) 3,123 8.8 57.3°
Reaches altitude 10° 10:32:23 10° 347° (NNW) 2,276 8.2 57.4°
Maximum altitude 10:35:39 16° 26° (NNE) 1,942 8.0 57.6°
Drops below altitude 10° 10:39:06 10° 65° (ENE) 2,431 8.7 57.7°
Sets 10:42:39 0° 85° (E) 3,442 9.4 57.9°
